Date,TemperatureHighF,TemperatureAvgF,TemperatureLowF,DewpointHighF,DewpointAvgF,DewpointLowF,HumidityHigh,HumidityAvg,HumidityLow,PressureMaxIn,PressureMinIn,WindSpeedMaxMPH,WindSpeedAvgMPH,GustSpeedMaxMPH,PrecipitationSumIn
2013-3-1,27,18,9,11,0,-10,63,45,34,30.22,30.11,10,4,18,0.00
2013-3-2,32,14,4,3,-5,-12,47,42,29,30.22,30.14,10,5,13,0.00
2013-3-3,7,5,3,-15,-17,-19,35,35,35,30.11,30.08,4,1,4,0.00
2013-3-4,36,21,3,13,1,-19,54,40,34,30.11,30.02,17,5,17,0.00
2013-3-5,29,28,28,16,15,13,58,57,54,30.05,29.96,13,8,13,0.00
2013-3-6,28,27,26,8,7,6,44,43,42,30.28,30.28,13,7,13,0.00
2013-3-7,36,22,7,8,3,-5,62,45,30,30.40,30.28,10,3,10,0.00
2013-3-8,38,29,10,16,11,-3,68,49,35,30.43,30.25,13,5,13,0.00
2013-3-9,40,33,26,27,18,12,73,53,38,30.25,29.87,24,10,24,0.00
2013-3-10,42,38,37,42,37,33,100,96,83,29.81,29.63,0,0,0,0.00
2013-3-11,37,35,35,36,35,33,100,98,87,29.63,29.57,0,0,0,0.00
2013-3-12,28,27,24,12,8,4,58,43,37,29.99,29.90,0,0,0,0.00
2013-3-13,36,26,18,8,2,-3,51,36,26,30.28,29.99,20,7,20,0.00
2013-3-14,33,30,24,18,12,3,70,48,31,30.25,30.05,13,6,13,0.00
2013-3-15,37,31,23,29,21,15,84,69,46,30.08,29.84,10,3,10,0.00
2013-3-16,35,28,23,10,6,3,49,38,33,30.14,29.99,0,0,0,0.00
2013-3-17,25,22,21,6,3,1,51,43,38,30.14,29.99,8,2,8,0.00
2013-3-18,33,28,21,24,16,5,81,62,52,30.02,29.60,12,4,12,0.00
2013-3-19,20,19,18,-6,-7,-8,31,31,31,30.02,30.02,17,8,17,0.00
2013-3-20,23,15,8,-4,-10,-15,33,32,30,30.05,30.02,22,8,22,0.00
2013-3-22,36,28,17,7,2,-1,45,33,28,30.05,30.02,5,2,7,0.00
2013-3-23,33,18,14,8,3,-1,63,52,31,30.14,30.05,6,0,6,0.00
2013-3-26,34,34,34,10,10,8,37,36,33,30.22,30.22,8,4,9,0.00
2013-3-27,40,34,29,14,10,7,42,36,27,30.28,30.22,10,4,10,0.00
2013-3-28,42,32,26,12,7,4,39,34,27,30.34,30.28,8,4,8,0.00
2013-3-29,50,36,22,16,12,6,59,38,25,30.31,30.22,8,2,8,0.00
2013-3-31,49,42,39,39,28,16,87,62,30,29.81,29.72,23,8,23,0.00